Regional Weather Roundup
Issued by NWS Northern Indiana

Home | Current Version | Previous Version | Graphics & Text | Print | Product List | Glossary On
Versions: 1 2 3 4 5 6 7 8 9 10 11 12 13 14 15 16 17 18 19 20 21 22 23 24 25 26 27 28 29 30 31 32 33 34 35 36 37 38 39 40 41 42 43 44 45 46 47 48 49 50
000
ASUS43 KIWX 020200
RWRIWX

KIWX WEATHER ROUNDUP
NATIONAL WEATHER SERVICE NORTHERN INDIANA
1000 PM EDT SUN MAY 01 2016

NOTE: "FAIR" INDICATES FEW OR NO CLOUDS BELOW 12,000 FEET WITH NO
SIGNIFICANT WEATHER AND/OR OBSTRUCTIONS TO VISIBILITY.

* THESE STATIONS ARE NOT UNDER NWS QUALITY CONTROL. THEY ALSO MAY NOT
  REPORT WEATHER SUCH AS PRECIPITATION OR FOG.

INZ001>027-020300-
NORTHERN INDIANA

CITY           SKY/WX    TMP DP  RH WIND       PRES   REMARKS
GARY*          TSTM      46  46 100 N10       29.96R
VALPARAISO     CLOUDY    52  48  87 NE10      29.93R
SOUTH BEND     CLOUDY    51  47  86 NE9       29.94F
GOSHEN         CLOUDY    52  48  86 NE12      29.93F
ANGOLA*        CLOUDY    50  50 100 NE9       29.95S
FORT WAYNE     CLOUDY    54  51  90 E15       29.91F

$$
INZ028>050-020300-
CENTRAL INDIANA

CITY           SKY/WX    TMP DP  RH WIND       PRES   REMARKS
LAFAYETTE      LGT RAIN  57  55  93 NW6       29.90R
KOKOMO*        CLOUDY    57  54  88 E16       29.87R THUNDER
MUNCIE*        LGT RAIN  61  57  87 E14       29.84F
INDIANAPOLIS   TSTM      61  56  83 S22       29.84R

$$
MIZ043>046-050>051-056>058-064>065-071>073-077>080-020300-
SOUTHWEST LOWER MICHIGAN

CITY           SKY/WX    TMP DP  RH WIND       PRES   REMARKS
BATTLE CREEK   CLOUDY    47  44  90 NE16      29.99F FOG
BENTON HARBOR  CLOUDY    51  46  83 E15G23    29.93F
COLDWATER*     CLOUDY    50  48  91 NE13      29.96F
HILLSDALE*     CLOUDY    49  49  99 NE10      29.98R FOG
HOLLAND        CLOUDY    49  37  63 E13G22    30.01F
GRAND RAPIDS   CLOUDY    48  37  65 NE22G31   30.02F
KALAMAZOO      LGT RAIN  48  44  86 NE10G22   29.97F
STURGIS*       CLOUDY    49  47  93 NE10      29.93F
THREE RIVERS*  CLOUDY    50  48  93 NE10G18   29.95F

$$
OHZ001>008-015>018-024>025-020300-
NORTHWEST OHIO

CITY           SKY/WX    TMP DP  RH WIND       PRES   REMARKS
DEFIANCE       CLOUDY    53  50  89 E9        29.96R FOG
FINDLAY        CLOUDY    53  47  79 NE13      29.95R
TOLEDO EXPRESS CLOUDY    50  48  93 E14       29.97S FOG
TOLEDO METCALF CLOUDY    51  47  86 NE6G17    29.99R
LIMA           CLOUDY    53  52  96 NE14      29.92S FOG

$$
AND FOR LAKE MICHIGAN COASTAL AND OPEN LAKE BUOY OBSERVATIONS

STATION/POSITION TEMP    WIND        PRES    VSBY  WAVE
                 AIR SEA DIR/SP/G                  HT/PER
                 (F)     (DEG/KT/KT) (MB)    (MI)  (FT/S)
CALUMET HARBOR    43                 1013.9R
MICHIGAN CITY     47      30/ 16/ 17   N/A
BURNS HARBOR      47      70/ 13/ 22 1013.9F
SAINT JOSEPH      51      20/  6/ 11 1015.2S
SOUTH LAKE BUOY   44 40   40/ 14/ 14 1015.7          2/ 4
4 MI NW BRIDGMAN  51 48                N/A           2/ 5

$$
&&




USA.gov is the U.S. government's official web portal to all federal, state and local government web resources and services.